The Dalles, WA

7:53 AM PDT on October 20, 2017 (GMT -0700)
Columbia Gorge Regional-The Dalles

Weather History for KDLS - August, 2014

Change the Weather History Date:

Saturday, August 23, 2014

  Actual Average Record
Temperature  
Mean Temperature 72 °F -  
Max Temperature 88 °F 84 °F 102 °F (1996)
Min Temperature 57 °F 59 °F 49 °F (1971)
Cooling Degree Days 8    
Growing Degree Days 22 (Base 50)    
Moisture  
Dew Point 50 °F    
Average Humidity 49    
Maximum Humidity 84    
Minimum Humidity 22    
Precipitation  
Precipitation 0.00 in - - ()
Sea Level Pressure  
Sea Level Pressure 30.03 in    
Wind  
Wind Speed 6 mph (NNW)    
Max Wind Speed 10 mph    
Max Gust Speed 16 mph    
Visibility 10 miles    
Events      
Averages and records for this station are not official NWS values.
T = Trace of Precipitation, MM = Missing Value Source: NWS Daily Summary

Daily Weather History Graph

Daily Weather History Graph

Search for Another Location

Airport or City:

Trip Planner

Search our weather history database for the weather conditions in past years. The results will help you decide how hot, cold, wet, or windy it might be!

Date:

Astronomy

Aug. 23, 2014 Rise Set
Actual Time 6:14 AM PDT 7:58 PM PDT
Civil Twilight 5:43 AM PDT 8:30 PM PDT
Nautical Twilight 5:05 AM PDT 9:08 PM PDT
Astronomical Twilight 4:23 AM PDT 9:49 PM PDT
Moon 4:34 AM PDT (8/23) 6:46 PM PDT (8/23)
Length of Visible Light 14h 46m
Length of Day
13h 43m
Waning Crescent, 3% of the Moon is Illuminated
Aug 23
Waning Crescent
Aug 25
New
Sep 2
First Quarter
Sep 8
Full
Sep 15
Last Quarter

Hourly Weather History & Observations

Time (PDT) Temp. Dew Point Humidity Pressure Visibility Wind Dir Wind Speed Gust Speed Precip Events Conditions
12:53 AM 66.9 °F 55.0 °F 66% 30.03 in 10.0 mi NW 10.4 mph 16.1 mph N/A   Clear
2:53 AM 64.0 °F 55.0 °F 73% 30.05 in 10.0 mi NNW 9.2 mph - N/A   Clear
3:53 AM 63.0 °F 54.0 °F 72% 30.06 in 10.0 mi NW 9.2 mph - N/A   Clear
4:53 AM 61.0 °F 54.0 °F 78% 30.08 in 10.0 mi NW 5.8 mph - N/A   Clear
5:53 AM 57.9 °F 53.1 °F 84% 30.09 in 10.0 mi Calm Calm - N/A   Clear
6:53 AM 57.0 °F 52.0 °F 83% 30.12 in 10.0 mi ESE 4.6 mph - N/A   Clear
7:53 AM 63.0 °F 53.1 °F 70% 30.12 in 10.0 mi NW 4.6 mph - N/A   Clear
8:53 AM 66.0 °F 53.1 °F 63% 30.12 in 10.0 mi Calm Calm - N/A   Clear
9:53 AM 69.1 °F 51.1 °F 53% 30.11 in 10.0 mi Variable 3.5 mph - N/A   Clear
10:53 AM 75.0 °F 51.1 °F 43% 30.10 in 10.0 mi Calm Calm - N/A   Clear
11:53 AM 79.0 °F 48.9 °F 35% 30.08 in 10.0 mi Calm Calm - N/A   Clear
12:53 PM 82.9 °F 48.0 °F 29% 30.05 in 10.0 mi NNW 5.8 mph - N/A   Clear
2:53 PM 88.0 °F 45.0 °F 22% 30.01 in 10.0 mi Variable 5.8 mph - N/A   Clear
3:53 PM 87.1 °F 45.0 °F 23% 29.99 in 10.0 mi East 5.8 mph - N/A   Clear
4:53 PM 88.0 °F 45.0 °F 22% 29.97 in 10.0 mi ESE 3.5 mph - N/A   Clear
5:53 PM 88.0 °F 44.1 °F 22% 29.96 in 10.0 mi Calm Calm - N/A   Clear
6:53 PM 86.0 °F 44.1 °F 23% 29.95 in 10.0 mi East 3.5 mph - N/A   Clear
8:53 PM 75.9 °F 50.0 °F 40% 29.95 in 10.0 mi SW 4.6 mph - N/A   Partly Cloudy
9:53 PM 73.0 °F 46.9 °F 39% 29.96 in 10.0 mi SW 4.6 mph - N/A   Clear
10:53 PM 73.0 °F 50.0 °F 44% 29.96 in 10.0 mi NW 3.5 mph - N/A   Clear
11:53 PM 66.9 °F 46.9 °F 49% 29.96 in 10.0 mi ESE 4.6 mph - N/A   Partly Cloudy